Погода в Ферне-Вольтере

Франция     46°15′27″N   6°06′51″E
темп.,
°C
ветер,
м/с
пор.,
м/с
влажн.,
%
обл.,
%
осадки,
мм/ч
давл.,
гПа
погр.,
м
21 июня, пн
пн2123:00+13ююв119882 1.1 101023
02:00+14сз1198100 3.9 101127
05:00+13з009880 0.5 101014
08:00+15св019331 0.5 101084
11:00+22юв11580 0.0 1009889
14:00+23юз245311 0.9 10081591
17:00+23ююз265764 1.1 10071838
20:00+18сз128318 2.4 100854
22 июня, вт
вт2223:00+14сз119574 1.2 101119
02:00+12с119581 1.7 101111
05:00+12з119796 1.9 101117
08:00+13зюз239780 3.6 1013224
11:00+17ююз228137 0.3 1013687
14:00+22ююз25509 0.3 10121735
17:00+21зсз235892 0.3 10131056
20:00+17зсз01843 1.0 101412
23 июня, ср
ср2323:00+12ссз119288 0.8 101711
02:00+12ссз11937 0.9 101711
05:00+11с219514 0.8 101718
08:00+14св239310 0.9 1017176
11:00+20всв236497 0.1 10161099
14:00+20ссв1271100 1.6 10161033
17:00+19ссв1279100 1.5 1015730
20:00+16ссв1189100 5.9 101613
24 июня, чт
чт2423:00+13ссв1497100 5.9 1019130
02:00+13св019992 9.4 101963
05:00+12св1198100 0.1 101717
08:00+14юз0096100 0.3 1018156
11:00+17юз237779 0.4 1018824
14:00+17з348279 3.9 1018894
17:00+18зсз236639 0.4 10191032
20:00+16зсз23753 0.8 1019406
25 июня, пт
пт2523:00+11зсз11935 0.0 102113
02:00+10сз11885 0.0 102113
05:00+9зсз11895 0.0 102012
08:00+13з12774 0.0 1020250
11:00+18зюз135637 0.1 10191464
14:00+20з234645 0.1 10181993
17:00+19сз225338 0.0 10181289
20:00+17зсз117275 0.0 101861